Pratica Di Mare, Italy

2:52 AM CET on February 12, 2016 (GMT +0100)
Pratica Di Mare Mil

Weather History for LIRE - October, 2013

Change the Weather History Date:

Tuesday, October 15, 2013

  Actual Average Record
Temperature  
Mean Temperature 66 °F -  
Max Temperature 73 °F 67 °F - ()
Min Temperature 59 °F 50 °F - ()
Cooling Degree Days 1    
Growing Degree Days 16 (Base 50)    
Moisture  
Dew Point 63 °F    
Average Humidity 88    
Maximum Humidity 94    
Minimum Humidity 72    
Precipitation  
Precipitation 0.31 in 0.16 in - ()
Sea Level Pressure  
Sea Level Pressure 30.04 in    
Wind  
Wind Speed 5 mph ()    
Max Wind Speed 8 mph    
Max Gust Speed -    
Visibility 7.1 miles    
Events Rain    
T = Trace of Precipitation, MM = Missing Value Source: Averaged Metar Reports

Daily Weather History Graph

Daily Weather History Graph

Search for Another Location

Airport or City:

Trip Planner

Search our weather history database for the weather conditions in past years. The results will help you decide how hot, cold, wet, or windy it might be!

Date:

Astronomy

Oct. 15, 2013 Rise Set
Actual Time 7:22 AM CEST 6:29 PM CEST
Civil Twilight 6:54 AM CEST 6:57 PM CEST
Nautical Twilight 6:22 AM CEST 7:29 PM CEST
Astronomical Twilight 5:49 AM CEST 8:01 PM CEST
Moon 4:26 PM CEST (10/15) 3:23 AM CEST (10/15)
Length of Visible Light 12h 02m
Length of Day
11h 06m
Waxing Gibbous, 85% of the Moon is Illuminated
Oct 15
Waxing Gibbous
Oct 19
Full
Oct 27
Last Quarter
Nov 3
New
Nov 10
First Quarter

Hourly Weather History & Observations

Time (CEST) Temp. Dew Point Humidity Pressure Visibility Wind Dir Wind Speed Gust Speed Precip Events Conditions
12:55 AM 62.6 °F 60.8 °F 94% 30.09 in - NNE 4.6 mph - N/A   Clear
1:55 AM 62.6 °F 59.0 °F 88% 30.09 in - NNE 6.9 mph - N/A   Clear
2:00 AM 62 °F 58 °F 84% 30.12 in 9 mi NNE 6.9 mph - -   Partly Cloudy
2:55 AM 62.6 °F 57.2 °F 82% 30.09 in - NNE 5.8 mph - N/A   Clear
3:55 AM 60.8 °F 57.2 °F 88% 30.09 in - NE 2.3 mph - N/A   Clear
4:55 AM 60.8 °F 57.2 °F 88% 30.06 in - NE 3.5 mph - N/A   Clear
5:00 AM 60 °F 57 °F 86% 30.08 in 9 mi NE 3.5 mph - -   Scattered Clouds
5:55 AM 59.0 °F 55.4 °F 88% 30.06 in - NE 4.6 mph - N/A   Clear
6:55 AM 60.8 °F 57.2 °F 88% 30.06 in 6.2 mi NE 4.6 mph - N/A   Scattered Clouds
7:55 AM 60.8 °F 57.2 °F 88% 30.06 in 6.2 mi Variable 1.2 mph - N/A   Partly Cloudy
8:00 AM 60 °F 58 °F 89% 30.08 in 9 mi 1.2 mph - -   Overcast
8:55 AM 62.6 °F 60.8 °F 94% 30.06 in 6.2 mi ENE 2.3 mph - N/A   Partly Cloudy
9:55 AM 66.2 °F 60.8 °F 83% 30.06 in 6.2 mi SE 4.6 mph - N/A   Partly Cloudy
10:55 AM 69.8 °F 62.6 °F 78% 30.09 in 6.2 mi SE 5.8 mph - N/A   Scattered Clouds
11:00 AM 70 °F 63 °F 72% 30.09 in 12 mi SE 5.8 mph - -   Partly Cloudy
11:55 AM 69.8 °F 64.4 °F 83% 30.06 in 6.2 mi SSE 6.9 mph - N/A   Scattered Clouds
12:55 PM 71.6 °F 64.4 °F 78% 30.06 in 6.2 mi South 5.8 mph - N/A   Scattered Clouds
1:55 PM 71.6 °F 66.2 °F 83% 30.04 in 6.2 mi SSW 6.9 mph - N/A   Partly Cloudy
2:00 PM 72 °F 66 °F 75% 30.06 in 12 mi SSW 6.9 mph - -   Scattered Clouds
2:55 PM 71.6 °F 68.0 °F 88% 30.04 in 6.2 mi SSW 6.9 mph - N/A   Scattered Clouds
3:55 PM 71.6 °F 68.0 °F 88% 30.01 in 6.2 mi SSE 8.1 mph - N/A   Mostly Cloudy
4:55 PM 69.8 °F 68.0 °F 94% 29.98 in 6.2 mi SSE 8.1 mph - N/A   Scattered Clouds
5:00 PM 71 °F 67 °F 85% 30.00 in 12 mi SSE 8.1 mph - -   Mostly Cloudy
5:55 PM 69.8 °F 68.0 °F 94% 29.98 in 6.2 mi SE 8.1 mph - N/A Rain Light Rain
6:55 PM 69.8 °F 68.0 °F 94% 29.98 in 6.2 mi SW 3.5 mph - N/A   Mostly Cloudy
7:55 PM 66.2 °F 64.4 °F 94% 29.98 in 6.2 mi East 4.6 mph - N/A   Mostly Cloudy
8:00 PM 67 °F 65 °F 90% 29.99 in 6 mi East 4.6 mph - -   Partly Cloudy
8:55 PM 66.2 °F 64.4 °F 94% 29.98 in 6.2 mi ESE 5.8 mph - N/A   Scattered Clouds
9:55 PM 66.2 °F 64.4 °F 94% 29.98 in 6.2 mi ESE 4.6 mph - N/A   Scattered Clouds
10:55 PM 66.2 °F 64.4 °F 94% 29.95 in 6.2 mi ESE 5.8 mph - N/A   Scattered Clouds
11:00 PM 67 °F 64 °F 89% 29.96 in 6 mi ESE 5.8 mph - -   Mostly Cloudy
11:55 PM 66.2 °F 64.4 °F 94% 29.95 in 5.0 mi SE 4.6 mph - N/A Rain Light Rain